Location: ??????
(36.0418°N, 43.6351°E)
Time: 04:05:22
(UTC+00:00)

COSMOS 2487 - Pass Details

Date: 07 March 2021
Orbit: 432 x 436 km, 74.7° (Epoch: 20 April)

Event Time Altitude Azimuth Distance (km) Brightness Sun altitude
Exits shadow 01:58:53 16° 341° (NNW) 1,219 4.5 -18.7°
Drops below altitude 10° 01:59:51 10° 352° (N) 1,546 5.1 -18.6°
Sets 02:02:04 0° 5° (N) 2,393 6.2 -18.1°
